EW2649 Weather Reports


Display with metric or nautical units.
time (UTC)temp
F
wind
direction
speed
MPH
gust
MPH
rain 1hr
in
rain 24hr
in
rain mn
in
humidity
%
barometer
mb
20260509044604 52 172 1.0 3.0 0.00 0.00 0.00 85 1013.0
20260509043013 53 171 2.0 4.0 0.00 0.00 0.00 83 1012.8
20260509041603 54 167 3.0 5.0 0.00 0.00 0.00 82 1012.7
20260509040036 54 161 2.0 4.0 0.00 0.00 0.00 82 1012.6
20260509034623 55 156 1.0 3.0 0.00 0.00 0.00 81 1012.5
20260509033043 56 177 1.0 6.0 0.00 0.00 0.00 80 1012.3
20260509031500 57 191 3.0 7.0 0.00 0.00 0.00 79 1012.2
20260509030105 58 146 3.0 5.0 0.00 0.00 0.00 78 1012.0
20260509024516 59 179 4.0 8.0 0.00 0.00 0.00 75 1012.0
20260509023117 62 184 2.0 6.0 0.00 0.00 0.00 73 1011.8
20260509021527 64 200 2.0 8.0 0.00 0.00 0.00 72 1011.7
20260509020120 65 221 3.0 7.0 0.00 0.00 0.00 70 1011.6
20260509014542 66 216 4.0 8.0 0.00 0.00 0.00 69 1011.5
20260509013008 66 209 6.0 9.0 0.00 0.00 0.00 68 1011.5
20260509011559 67 220 6.0 9.0 0.00 0.00 0.00 68 1011.5
20260509010018 68 213 6.0 9.0 0.00 0.00 0.00 67 1011.5
20260509004617 69 224 7.0 10.0 0.00 0.00 0.00 65 1011.7
20260509003034 70 221 5.0 8.0 0.00 0.00 0.00 63 1011.8
20260509001628 71 69 1.0 6.0 0.00 0.00 0.00 59 1011.9
20260509000050 71 101 3.0 8.0 0.00 0.00 0.00 59 1011.8
20260508234514 73 19 2.0 6.0 0.00 0.00 0.00 57 1011.9
20260508233109 73 50 1.0 8.0 0.00 0.00 0.00 58 1012.0
20260508231524 73 66 3.0 8.0 0.00 0.00 0.00 58 1011.9
20260508230128 73 9 3.0 9.0 0.00 0.00 0.00 59 1012.2
20260508224537 73 130 2.0 8.0 0.00 0.00 0.00 60 1012.4
20260508223128 73 50 3.0 9.0 0.00 0.00 0.00 60 1012.6
20260508221544 73 42 3.0 10.0 0.00 0.00 0.00 61 1012.9
20260508220013 72 360 4.0 9.0 0.00 0.00 0.00 62 1013.0
20260508214558 72 46 3.0 7.0 0.00 0.00 0.00 62 1013.2
20260508213016 70 130 2.0 9.0 0.00 0.00 0.00 64 1013.4
20260508211608 70 239 1.0 8.0 0.00 0.00 0.00 65 1013.6
20260508210028 69 100 5.0 9.0 0.00 0.00 0.00 66 1013.7
20260508204616 70 65 2.0 9.0 0.00 0.00 0.00 64 1013.9
20260508203034 69 38 2.0 10.0 0.00 0.00 0.00 67 1014.0
20260508201626 69 49 4.0 9.0 0.00 0.00 0.00 66 1014.1
20260508200044 69 36 2.0 8.0 0.00 0.00 0.00 67 1014.1
20260508194502 68 27 1.0 9.0 0.00 0.00 0.00 68 1014.3
20260508193103 67 65 2.0 9.0 0.00 0.00 0.00 69 1014.4
20260508191515 67 34 5.0 10.0 0.00 0.00 0.00 70 1014.4
20260508190109 66 59 3.0 8.0 0.00 0.00 0.00 69 1014.5
20260508184533 67 16 2.0 9.0 0.00 0.00 0.00 69 1014.7
20260508183116 66 59 2.0 9.0 0.00 0.00 0.00 68 1014.8
20260508181548 65 120 3.0 8.0 0.00 0.00 0.00 68 1014.9
20260508180123 65 117 2.0 9.0 0.00 0.00 0.00 70 1015.1
20260508174554 63 212 2.0 5.0 0.00 0.00 0.00 72 1014.9
20260508173001 63 63 3.0 7.0 0.00 0.00 0.00 70 1015.0
20260508171556 62 170 0.0 6.0 0.00 0.00 0.00 74 1015.2
20260508170011 61 305 1.0 6.0 0.00 0.00 0.00 73 1015.2
20260508164603 61 77 0.0 5.0 0.00 0.00 0.00 73 1015.2
20260508163033 59 59 2.0 6.0 0.00 0.00 0.00 78 1015.1
20260508161615 59 120 1.0 4.0 0.00 0.00 0.00 79 1015.2
20260508160033 57 91 2.0 4.0 0.00 0.00 0.00 81 1015.3
20260508154626 56 199 3.0 5.0 0.00 0.00 0.00 82 1015.6
20260508153043 55 96 0.0 3.0 0.00 0.00 0.00 87 1015.6
20260508151501 53 78 0.0 3.0 0.00 0.00 0.00 91 1015.5
20260508150053 51 52 1.0 3.0 0.00 0.00 0.00 92 1015.5
20260508144511 49 194 0.0 2.0 0.00 0.00 0.00 92 1015.6
20260508143103 47 193 1.0 3.0 0.00 0.00 0.00 92 1015.6
20260508141523 45 194 1.0 2.0 0.00 0.00 0.00 91 1015.6
20260508140111 45 194 0.0 1.0 0.00 0.00 0.00 91 1015.4
20260508134534 44 194 0.0 1.0 0.00 0.00 0.00 91 1015.3
20260508133120 45 194 2.0 3.0 0.00 0.00 0.00 91 1015.1
20260508131540 45 210 1.0 2.0 0.00 0.00 0.00 90 1015.2
20260508130130 46 212 0.0 2.0 0.00 0.00 0.00 90 1015.1
20260508124550 47 211 0.0 1.0 0.00 0.00 0.00 90 1015.0
20260508123013 48 211 0.0 3.0 0.00 0.00 0.00 90 1014.9
20260508121608 48 211 3.0 4.0 0.00 0.00 0.00 89 1014.9
20260508120026 49 225 1.0 2.0 0.00 0.00 0.00 89 1015.1
20260508114622 50 225 0.0 1.0 0.00 0.00 0.00 90 1014.9
20260508113040 50 220 1.0 3.0 0.00 0.00 0.00 90 1015.0
20260508111632 50 219 2.0 6.0 0.00 0.00 0.00 90 1014.9
20260508110047 50 175 2.0 5.0 0.00 0.00 0.00 91 1014.9
20260508104507 50 194 2.0 3.0 0.00 0.00 0.00 91 1014.9
20260508103058 50 242 1.0 3.0 0.00 0.00 0.00 91 1014.9
20260508101521 49 281 0.0 1.0 0.00 0.00 0.00 91 1014.8
20260508100107 49 281 0.0 1.0 0.00 0.00 0.00 91 1014.7
20260508094528 49 281 1.0 2.0 0.00 0.00 0.00 91 1014.7
20260508093121 48 180 0.0 1.0 0.00 0.00 0.00 91 1014.7
20260508091544 47 180 0.0 2.0 0.00 0.00 0.00 91 1014.7
20260508090132 47 181 0.0 2.0 0.00 0.00 0.00 91 1014.7
20260508084554 47 181 1.0 3.0 0.00 0.00 0.00 91 1014.7
20260508083012 47 180 2.0 4.0 0.00 0.00 0.00 91 1014.8
20260508081651 47 169 2.0 5.0 0.00 0.00 0.00 90 1014.8
20260508080046 48 182 2.0 6.0 0.00 0.00 0.00 91 1014.9
20260508074518 48 165 4.0 5.0 0.00 0.00 0.00 90 1014.8
20260508073130 47 181 3.0 5.0 0.00 0.00 0.00 90 1014.7
20260508071557 48 178 2.0 4.0 0.00 0.00 0.00 90 1014.7
20260508070010 48 178 1.0 2.0 0.00 0.00 0.00 90 1014.6
20260508064530 48 178 1.0 2.0 0.00 0.00 0.00 89 1014.6
20260508063128 49 179 1.0 2.0 0.00 0.00 0.00 89 1014.7
20260508061534 49 178 0.0 1.0 0.00 0.00 0.00 88 1014.6
20260508060127 50 179 0.0 1.0 0.00 0.00 0.00 88 1014.5
20260508054543 51 178 0.0 1.0 0.00 0.00 0.00 88 1014.3
20260508053005 52 178 0.0 1.0 0.00 0.00 0.00 87 1014.3
20260508051556 52 178 1.0 3.0 0.00 0.00 0.00 86 1014.2
20260508050008 53 141 1.0 4.0 0.00 0.00 0.00 85 1014.2